Ypsilanti, MI

1:44 AM EST on February 20, 2017 (GMT -0500)
Willow Run

Weather History for KYIP - January, 2003

Change the Weather History Date:

Thursday, January 2, 2003

  Actual Average Record
Temperature  
Mean Temperature 23 °F -  
Max Temperature 27 °F 32 °F 55 °F (2000)
Min Temperature 19 °F 20 °F 1 °F (2001)
Degree Days  
Heating Degree Days 42    
Moisture  
Dew Point 16 °F    
Average Humidity 83    
Maximum Humidity 93    
Minimum Humidity 63    
Precipitation  
Precipitation 0.07 in - - ()
Sea Level Pressure  
Sea Level Pressure 30.05 in    
Wind  
Wind Speed 13 mph (NNE)    
Max Wind Speed 17 mph    
Max Gust Speed 23 mph    
Visibility 5 miles    
Events Fog , Snow    
Averages and records for this station are not official NWS values.
T = Trace of Precipitation, MM = Missing Value Source: NWS Daily Summary

Daily Weather History Graph

Daily Weather History Graph

Search for Another Location

Airport or City:

Trip Planner

Search our weather history database for the weather conditions in past years. The results will help you decide how hot, cold, wet, or windy it might be!

Date:

Astronomy

Jan. 02, 2003 Rise Set
Actual Time 8:03 AM EST 5:13 PM EST
Civil Twilight 7:31 AM EST 5:45 PM EST
Nautical Twilight 6:56 AM EST 6:20 PM EST
Astronomical Twilight 6:22 AM EST 6:54 PM EST
Moon 8:07 AM EST (1/2) 4:58 PM EST (1/2)
Length of Visible Light 10h 13m
Length of Day
9h 10m
Waning Crescent, 0% of the Moon is Illuminated
Jan 2
Waning Crescent
Jan 2
New
Jan 10
First Quarter
Jan 18
Full
Jan 25
Last Quarter

Hourly Weather History & Observations

Time (EST) Temp. Windchill Dew Point Humidity Pressure Visibility Wind Dir Wind Speed Gust Speed Precip Events Conditions
12:53 AM 27.0 °F 15.6 °F 19.0 °F 72% 30.13 in 10.0 mi NNE 13.8 mph - N/A   Overcast
1:53 AM 27.0 °F 16.1 °F 19.0 °F 72% 30.12 in 10.0 mi NE 12.7 mph - N/A   Overcast
2:53 AM 26.1 °F 13.6 °F 18.0 °F 71% 30.14 in 10.0 mi NE 16.1 mph 19.6 mph N/A   Overcast
3:53 AM 26.1 °F 14.5 °F 18.0 °F 71% 30.13 in 10.0 mi NE 13.8 mph - N/A   Overcast
4:53 AM 25.0 °F 13.1 °F 16.0 °F 69% 30.13 in 10.0 mi NE 13.8 mph - N/A   Overcast
5:53 AM 21.9 °F 7.8 °F 10.9 °F 63% 30.14 in 10.0 mi NE 17.3 mph 23.0 mph N/A   Scattered Clouds
6:53 AM 21.0 °F 10.6 °F 10.0 °F 63% 30.16 in 10.0 mi NE 9.2 mph - N/A   Clear
7:53 AM 19.9 °F 7.3 °F 10.9 °F 68% 30.16 in 10.0 mi ENE 12.7 mph - N/A   Clear
8:22 AM 21.2 °F 8.3 °F 10.4 °F 63% 30.06 in 10.0 mi NE 13.8 mph - N/A   Mostly Cloudy
8:53 AM 21.0 °F 8.6 °F 10.9 °F 65% 30.17 in 10.0 mi NE 12.7 mph - N/A   Overcast
9:53 AM 21.0 °F 10.6 °F 10.9 °F 65% 30.19 in 10.0 mi NNE 9.2 mph - N/A   Overcast
10:53 AM 21.0 °F 8.6 °F 12.9 °F 71% 30.17 in 10.0 mi NE 12.7 mph - N/A   Overcast
11:53 AM 21.9 °F 8.7 °F 14.0 °F 72% 30.11 in 10.0 mi NE 15.0 mph - N/A   Overcast
12:53 PM 21.9 °F 8.7 °F 14.0 °F 72% 30.08 in 10.0 mi NE 15.0 mph - N/A   Overcast
1:53 PM 21.9 °F 10.4 °F 14.0 °F 72% 30.09 in 10.0 mi NE 11.5 mph - N/A   Overcast
2:53 PM 21.0 °F 9.3 °F 16.0 °F 81% 30.10 in 1.5 mi NNE 11.5 mph - 0.00 in Snow Light Snow
3:12 PM 21.2 °F 10.9 °F 17.6 °F 86% 30.00 in 0.8 mi NNE 9.2 mph - 0.00 in Snow Light Snow
3:23 PM 19.4 °F 7.9 °F 17.6 °F 93% 30.00 in 0.5 mi NNE 10.4 mph - 0.00 in Fog , Snow Snow
3:53 PM 19.9 °F 8.6 °F 18.0 °F 92% 30.10 in 0.5 mi NNE 10.4 mph - 0.00 in Fog , Snow Snow
4:21 PM 19.4 °F 8.6 °F 17.6 °F 93% 30.00 in 0.2 mi NNE 9.2 mph - 0.02 in Fog , Snow Snow
4:32 PM 19.4 °F 6.6 °F 17.6 °F 93% 29.99 in 0.5 mi NNE 12.7 mph - 0.02 in Fog , Snow Snow
4:42 PM 19.4 °F 6.6 °F 17.6 °F 93% 29.99 in 0.2 mi North 12.7 mph - 0.03 in Fog , Snow Heavy Snow
4:53 PM 19.0 °F 8.2 °F 17.1 °F 92% 30.09 in 0.2 mi North 9.2 mph - 0.03 in Fog , Snow Snow
5:00 PM 19.4 °F 6.6 °F 17.6 °F 93% 29.99 in 0.5 mi North 12.7 mph - 0.01 in Fog , Snow Snow
5:09 PM 19.4 °F 6.6 °F 17.6 °F 93% 29.99 in 1.0 mi NNE 12.7 mph - 0.01 in Snow Light Snow
5:53 PM 19.9 °F 7.9 °F 18.0 °F 92% 30.08 in 1.0 mi North 11.5 mph - 0.02 in Snow Light Snow
6:04 PM 19.4 °F 7.2 °F 17.6 °F 93% 29.98 in 0.8 mi North 11.5 mph - 0.00 in Snow Light Snow
6:13 PM 19.4 °F 7.2 °F 17.6 °F 93% 29.98 in 0.5 mi North 11.5 mph - 0.01 in Fog , Snow Snow
6:53 PM 19.9 °F 6.2 °F 18.0 °F 92% 30.07 in 0.8 mi NNE 15.0 mph - 0.02 in Snow Light Snow
7:02 PM 19.4 °F 5.5 °F 17.6 °F 93% 29.97 in 1.0 mi North 15.0 mph - 0.00 in Snow Light Snow
7:21 PM 19.4 °F 6.6 °F 17.6 °F 93% 29.96 in 1.8 mi NNE 12.7 mph - 0.00 in Snow Light Snow
7:28 PM 19.4 °F 7.2 °F 17.6 °F 93% 29.97 in 2.0 mi NNE 11.5 mph - 0.00 in Snow Light Snow
7:53 PM 19.9 °F 7.9 °F 18.0 °F 92% 30.08 in 2.5 mi North 11.5 mph - 0.00 in Snow Light Snow
8:04 PM 19.4 °F 7.2 °F 17.6 °F 93% 29.97 in 4.0 mi North 11.5 mph - 0.00 in Snow Light Snow
8:53 PM 19.9 °F 7.3 °F 17.1 °F 89% 30.07 in 5.0 mi North 12.7 mph - 0.00 in Snow Light Snow
9:14 PM 21.2 °F 8.9 °F 17.6 °F 86% 29.97 in 4.0 mi North 12.7 mph - 0.00 in Snow Light Snow
9:24 PM 19.4 °F 6.6 °F 17.6 °F 93% 29.96 in 1.8 mi NNE 12.7 mph - 0.00 in Snow Light Snow
9:33 PM 19.4 °F 6.6 °F 17.6 °F 93% 29.95 in 2.0 mi NNE 12.7 mph - 0.00 in Snow Light Snow
9:53 PM 19.9 °F 7.9 °F 18.0 °F 92% 30.05 in 2.5 mi North 11.5 mph - 0.00 in Snow Light Snow
10:01 PM 19.4 °F 6.6 °F 17.6 °F 93% 29.95 in 4.0 mi North 12.7 mph - 0.00 in Snow Light Snow
10:27 PM 19.4 °F 6.6 °F 17.6 °F 93% 29.94 in 4.0 mi NNE 12.7 mph - 0.00 in   Overcast
10:53 PM 21.0 °F 9.3 °F 18.0 °F 88% 30.04 in 8.0 mi NNE 11.5 mph - 0.00 in   Overcast
11:53 PM 21.0 °F 9.3 °F 18.0 °F 88% 30.02 in 4.0 mi NNE 11.5 mph - 0.00 in Snow Light Snow